Location: Balls_Creek
(35.6670°N, 81.1170°W)
Time: 19:17:26
(UTC-04:00)

Daily predictions for brighter satellites

Satellite Brightness Start Highest point End
(mag) Time Altitude Azimuth Time Altitude Azimuth Time Altitude Azimuth
GEOS 3 Rocket 3.8 20:47:43 10° SE 20:52:58 70° NE 20:58:10 10° NNW
Okean 1 4.0 20:52:18 10° SSW 20:56:20 63° W 21:00:23 10° N
Cosmos 2219 Rocket 3.1 20:52:03 10° SW 20:57:36 57° WNW 21:03:09 10° NNE
Lacrosse 5 rocket 1.1 20:57:10 10° SW 21:00:57 80° SE 21:04:55 10° NE
SL-16 R/B 2.6 20:56:35 10° S 21:01:51 42° ESE 21:07:08 10° NE
Cosmos 2058 Rocket 4.4 21:00:11 10° NNE 21:03:42 23° ENE 21:07:10 10° SE
OAO 3 Copernicus 4.3 20:58:49 10° W 21:03:53 83° S 21:08:56 10° E
Meteor 1-13 Rocket 4.3 21:00:16 10° S 21:06:06 78° E 21:11:50 10° NNE
Okean 2 4.3 21:08:13 10° SSE 21:11:51 29° E 21:15:29 10° NNE
deb Chang Zheng 4 3.9 21:07:49 10° NNE 21:12:04 46° E 21:16:15 10° S
Aureole 2 Rocket 4.1 21:09:28 10° SSE 21:12:31 20° ESE 21:15:25 10° NE
Cosmos 1500 3.2 21:09:33 10° N 21:13:26 78° E 21:17:19 10° S
Cosmos 494 Rocket 4.2 21:12:32 10° S 21:17:22 45° ESE 21:22:14 10° NNE
Cosmos 1743 2.9 21:17:34 10° N 21:21:20 52° E 21:25:01 10° SSE
SJ-11-01 4.4 21:21:52 10° SSE 21:26:26 58° ENE 21:31:01 10° N
Meteor 1-19 Rocket 4.2 21:24:49 10° S 21:30:28 86° E 21:36:05 10° N
Cosmos 1606 Rocket 3.5 21:26:29 10° N 21:30:58 79° E 21:35:21 10° S
PSLV R/B 4.1 21:29:02 10° SSW 21:32:13 32° SSE 21:34:54 13° E
CZ-4 DEB 4.2 21:30:55 10° SSW 21:33:55 36° W 21:36:57 10° NNW
H-2A R/B 2.0 21:31:19 12° SSE 21:35:06 68° ENE 21:39:23 10° N
Meteor 2-4 Rocket 3.8 21:30:17 10° S 21:36:02 70° E 21:41:56 10° NNE
BREEZE-M R/B 4.5 21:34:00 10° W 21:36:55 27° SW 21:41:26 11° SSE
CZ-2C R/B 1.0 21:36:00 14° S 21:37:49 54° W 21:40:06 10° NNW
Cosmos 1331 Rocket 4.1 21:35:08 10° N 21:40:18 60° ENE 21:44:03 18° SSE
Cosmos 2333 Rocket 4.1 21:35:33 10° SW 21:40:37 34° WNW 21:45:43 10° N
SPOT 5 3.4 21:38:18 18° SE 21:41:01 36° ENE 21:45:01 10° N
Cosmos 1626 Rocket 4.2 21:41:51 18° SSE 21:44:31 36° E 21:48:34 10° NNE
Cosmos 2297 3.7 21:41:43 10° NNW 21:47:27 75° ENE 21:51:38 19° SSE
CZ-4 SHROUD 3.6 21:49:26 30° SE 21:50:33 45° ENE 21:53:35 10° N
APEX 4.3 21:50:57 10° N 21:54:50 40° ENE 21:57:11 25° ESE
USA 186 4.4 21:53:35 10° SW 21:55:27 15° W 21:57:16 10° WNW
SeaSat 1 2.6 21:53:10 23° SE 21:56:10 62° ENE 22:01:03 10° NNW
ATLAS CENTAUR R/B 3.9 21:52:18 10° WSW 21:56:38 30° NW 22:01:04 10° N
CZ-4B R/B 3.7 21:56:20 10° NNE 22:01:13 48° E 22:04:21 22° SSE
Cosmos 2228 3.0 22:01:13 10° N 22:05:39 79° E 22:07:57 28° SSE
Tsikada Rocket 4.0 22:07:06 16° S 22:12:21 70° E 22:18:43 10° NNE
BREEZE-M DEB (TANK) 1.8 22:11:05 10° NW 22:13:12 70° N 22:13:12 70° N
YAOGAN 6 3.2 22:13:00 37° E 22:13:29 39° ENE 22:16:59 10° N
Terra 3.8 22:13:07 14° ENE 22:13:56 14° ENE 22:16:23 10° NNE
Atlas Centaur 2 3.3 22:07:55 10° SW 22:15:18 44° SSE 22:20:37 21° ESE
OTV 4 2.9 22:14:17 10° WSW 22:15:32 14° SW 22:15:32 14° SW
COSMOS 2455 3.0 22:13:20 19° S 22:17:27 48° ESE 22:23:13 10° NE
Cosmos 1513 Rocket 4.5 22:12:31 10° N 22:18:51 85° W 22:23:02 22° S
ATLAS 3B R/B 3.6 22:18:09 28° SE 22:19:41 30° ESE 22:26:04 10° NE
Envisat 3.1 22:16:49 24° S 22:19:56 71° WSW 22:25:01 10° NNW
MetOp-A 4.1 22:17:21 31° SSE 22:19:58 75° ENE 22:25:20 10° N
ERS-1 Rocket 4.4 22:17:12 10° SSW 22:21:41 33° W 22:26:11 10° NW
Cosmos 1939 Rocket 3.9 22:19:32 20° SSW 22:22:06 44° W 22:26:05 10° NNW
Meteor 1-15 Rocket 4.4 22:17:36 10° NNW 22:23:10 71° W 22:26:46 23° S
Cosmos 2285 Rocket 4.3 22:19:28 10° NNW 22:25:43 65° WSW 22:29:39 24° S
GRACE-1 4.5 22:25:20 10° N 22:28:09 55° W 22:28:09 55° W
GRACE-2 4.5 22:25:47 10° N 22:28:35 55° W 22:28:35 55° W
Cosmos 2278 Rocket 4.2 22:25:19 10° NW 22:29:34 22° W 22:33:47 10° SSW
PSLV R/B 4.2 22:30:19 36° WSW 22:30:46 38° W 22:33:41 10° NNW
USA 234 3.3 22:27:51 32° ESE 22:31:10 76° NE 22:37:44 10° NW
Cosmos 2369 Rocket 3.3 22:40:12 10° N 22:45:03 28° ENE 22:46:13 26° E
SL-16 R/B 4.4 22:41:34 10° WSW 22:46:05 24° WNW 22:50:39 10° N
Cosmos 1666 4.5 22:44:26 10° NNW 22:47:48 28° W 22:49:18 21° SW
OAO 3 Copernicus 4.2 22:43:22 10° W 22:48:24 69° SSW 22:48:52 64° SSE
Abrixas rocket 3.0 22:46:03 10° NW 22:48:52 52° NNW 22:48:52 52° NNW
ARGOS 3.1 22:48:12 52° SSE 22:49:34 79° ENE 22:55:00 10° N
H-2A R/B 2.7 22:50:30 36° ENE 22:50:46 36° ENE 22:55:19 10° N
NOAA 11 4.1 22:52:09 55° SSE 22:53:20 78° ENE 22:58:46 10° N
Cosmos 1825 Rocket 3.5 22:54:01 72° E 22:54:01 72° E 22:58:22 10° NNE
SPOT 1/Viking Rocket 3.7 22:57:45 47° SSW 22:59:05 65° WSW 23:04:12 10° NNW
Cosmos 1634 Rocket 3.9 22:54:46 10° N 23:00:56 71° E 23:02:12 55° SE
Cosmos 1812 Rocket 4.1 22:57:20 10° NNW 23:01:35 51° W 23:02:13 46° WSW
Cosmos 1992 Rocket 4.1 22:58:02 10° N 23:03:12 59° ENE 23:03:30 58° E
Cosmos 1461 3.1 22:59:48 10° NW 23:03:39 64° W 23:03:39 64° W
DMSP B5D2-2 4.3 23:02:12 10° NNE 23:07:02 53° E 23:07:02 53° E
Cosmos 1346 Rocket 3.9 23:10:08 37° NNE 23:10:08 37° NNE 23:12:36 10° NNE
Cosmos 1066 Rocket 4.2 23:11:09 56° SSW 23:12:24 82° W 23:18:11 10° N
Cosmos 1190 Rocket 3.8 23:14:26 80° ESE 23:14:30 80° ESE 23:19:50 10° NNE
Cosmos 489 Rocket 4.3 23:20:42 67° SSE 23:21:24 74° ESE 23:27:46 10° NNE
Milstar 3 Cent rocket 4.3 23:18:45 10° WSW 23:19:51 13° SW 23:19:51 13° SW
Meteor 1-21 4.1 23:26:42 76° ESE 23:26:46 76° E 23:32:34 10° NNE
Spot 4 4.2 23:27:26 57° NE 23:27:26 57° NE 23:31:31 10° N
Cosmos 2279 Rocket 3.9 23:21:42 10° N 23:27:56 67° E 23:28:18 65° ESE
Cosmos 676 Rocket 4.4 23:31:29 53° NE 23:31:29 53° NE 23:35:45 10° NNE
Landsat 7 4.3 23:35:43 53° W 23:35:43 53° W 23:40:03 10° NNW
Cosmos 1953 Rocket 4.5 23:38:28 44° WNW 23:38:28 44° WNW 23:42:15 10° N
Cosmos 1943 3.8 23:39:29 41° WSW 23:41:03 54° WNW 23:46:37 10° NNE
Cosmos 2180 Rocket 4.4 23:35:08 10° N 23:41:24 72° E 23:41:32 72° E
Terra 2.6 23:51:59 48° WNW 23:51:59 48° WNW 23:55:51 10° NNW
